Tracking 25953 objects as of 15-Aug-2022
HD Live streaming from Space Station
objects crossing your sky now

JILIN-01 GAOFEN 3J

Track JILIN-01 GAOFEN 3J now!
10-day predictions


NORAD ID: 46462
Int'l Code: 2020-065J
Perigee: 528.0 km
Apogee: 547.6 km
Inclination: 97.4 °
Period: 95.2 minutes
Semi major axis: 6908 km
RCS: Unknown
Launch date: September 15, 2020
Source: People's Republic of China (PRC)
Launch site: Yellow Sea Launch Area, China (YSLA)
aabbcc
Your satellite tracking list
Your tracking list is empty




NASA's NSSDC Master Catalog

Two Line Element Set (TLE):
1 46462U 20065J   22227.21149601  .00003619  00000-0  21513-3 0  9998
2 46462  97.4423 278.2382 0014179  52.9435  34.5614 15.11817381105527
Source of the keplerian elements: AFSPC